This is the latest recevied weather packets stored in our database for station/object KB4RFE. If no packets are shown the sender has not sent any weather packets the latest 10 day(s).
| Time | Temp. | Humidity | Pressure | Rain* | Wind** | Luminosity | Snow |
|---|---|---|---|---|---|---|---|
| 1777915098 | 23.33° C | 52% | 1020.9 hPa | 0 mm | - | 964 W/m² | - |
| 1777914795 | 22.78° C | 53% | 1021 hPa | 0 mm | - | 937 W/m² | - |
| 1777914492 | 23.33° C | 55% | 1020.9 hPa | 0 mm | - | 938 W/m² | - |
| 1777914189 | 23.33° C | 53% | 1020.8 hPa | 0 mm | - | 925 W/m² | - |
| 1777913885 | 23.33° C | 51% | 1020.9 hPa | 0 mm | - | 924 W/m² | - |
| 1777913582 | 23.33° C | 51% | 1021 hPa | 0 mm | - | 923 W/m² | - |
| 1777913278 | 23.33° C | 53% | 1021.1 hPa | 0 mm | - | 920 W/m² | - |
| 1777912976 | 22.78° C | 55% | 1021 hPa | 0 mm | - | 916 W/m² | - |
| 1777912672 | 22.78° C | 56% | 1020.9 hPa | 0 mm | - | 915 W/m² | - |
| 1777912368 | 22.78° C | 54% | 1021.1 hPa | 0 mm | - | 919 W/m² | - |
| 1777912064 | 22.78° C | 56% | 1020.9 hPa | 0 mm | - | 912 W/m² | - |
| 1777911760 | 22.78° C | 54% | 1020.9 hPa | 0 mm | - | 897 W/m² | - |
| 1777911457 | 22.78° C | 57% | 1021 hPa | 0 mm | - | 898 W/m² | - |
| 1777911154 | 23.33° C | 56% | 1020.8 hPa | 0 mm | - | 880 W/m² | - |
| 1777910852 | 23.33° C | 57% | 1020.9 hPa | 0 mm | - | 881 W/m² | - |
| 1777910548 | 23.33° C | 51% | 1020.9 hPa | 0 mm | - | 874 W/m² | - |
| 1777910245 | 23.33° C | 54% | 1020.8 hPa | 0 mm | - | 859 W/m² | - |
| 1777909942 | 22.78° C | 53% | 1020.9 hPa | 0 mm | - | 859 W/m² | - |
| 1777909639 | 22.78° C | 50% | 1020.8 hPa | 0 mm | - | 846 W/m² | - |
| 1777909336 | 22.78° C | 48% | 1020.9 hPa | 0 mm | - | 819 W/m² | - |
| 1777909034 | 22.78° C | 52% | 1021 hPa | 0 mm | - | 789 W/m² | - |
| 1777908731 | 22.78° C | 54% | 1020.9 hPa | 0 mm | - | 782 W/m² | - |
| 1777908428 | 22.78° C | 49% | 1020.9 hPa | 0 mm | - | 795 W/m² | - |
| 1777908125 | 22.78° C | 53% | 1021 hPa | 0 mm | - | 805 W/m² | - |
| 1777907821 | 22.78° C | 56% | 1021 hPa | 0 mm | - | 795 W/m² | - |
* Rain latest hour (hover to see other rain measurements)
** Current wind speed in m/s (hover to see current wind gust speed)